This demonstration page uses our WeatherBlox Daily Observations layout. Learn more.

39.92423, -83.80882

Hourly Observations for April 2, 2017

Temp ( °F °C ) Dew Point ( °F °C ) Humidity (%) Winds ( mph kmh ) Pressure ( in mb ) Visibility ( mi km ) Precip ( " mm )
12:56 am 00:56 Clear 38 3.3 35 1.7 89 89 SSE 3 6 30.27 1025 10 16.0934 0 0
1:56 am 01:56 Clear 34 1.1 33 0.6 97 97 SSE 5 7 30.26 1025 10 16.0934 0 0
2:56 am 02:56 Clear 34 1.1 33 0.6 97 97 Calm 30.25 1024 9 14.48406 0 0
3:56 am 03:56 Clear 33 0.6 31 -0.6 92 92 Calm 30.25 1024 7 11.26538 0 0
4:56 am 04:56 Clear with Mist and Fog 32 0 31 -0.6 96 96 E 3 6 30.24 1024 6 9.65604 0 0
5:56 am 05:56 Clear 30 -1.1 29 -1.7 96 96 Calm 30.26 1025 7 11.26538 0 0
6:56 am 06:56 Clear 31 -0.6 31 -0.6 100 100 SE 3 6 30.26 1025 8 12.87472 0 0
7:56 am 07:56 Sunny 34 1.1 33 0.6 97 97 E 3 6 30.27 1025 9 14.48406 0 0
8:56 am 08:56 Sunny 39 3.9 38 3.3 96 96 SE 5 7 30.27 1025 10 16.0934 0 0
9:56 am 09:56 Sunny 44 6.7 39 3.9 83 83 ESE 12 19 30.23 1024 10 16.0934 0 0
10:56 am 10:56 Sunny 47 8.3 38 3.3 71 71 SSE 7 11 30.28 1026 10 16.0934 0 0
11:56 am 11:56 Sunny 51 10.6 38 3.3 61 61 SE 9 15 30.24 1024 10 16.0934 0 0
12:56 pm 12:56 Sunny 54 12.2 37 2.8 53 53 E 14 22 30.21 1023 10 16.0934 0 0
1:56 pm 13:56 Sunny 57 13.9 36 2.2 45 45 ESE 13 20 30.18 1022 10 16.0934 0 0
2:56 pm 14:56 Sunny 56 13.3 37 2.8 49 49 ESE 13 20 30.15 1021 10 16.0934 0 0
3:56 pm 15:56 Sunny 58 14.4 38 3.3 48 48 ESE 13 20 30.12 1020 10 16.0934 0 0
4:56 pm 16:56 Sunny 58 14.4 38 3.3 48 48 ESE 13 20 30.09 1019 10 16.0934 0 0
5:56 pm 17:56 Sunny 58 14.4 38 3.3 48 48 SE 9 15 30.09 1019 10 16.0934 0 0
6:56 pm 18:56 Sunny 57 13.9 39 3.9 51 51 E 9 15 30.06 1018 10 16.0934 0 0
7:56 pm 19:56 Sunny 52 11.1 40 4.4 64 64 E 7 11 30.04 1017 10 16.0934 0 0
8:56 pm 20:56 Clear 49 9.4 38 3.3 66 66 E 8 13 30.03 1017 10 16.0934 0 0
9:56 pm 21:56 Clear 50 10 37 2.8 61 61 E 9 15 30.01 1016 10 16.0934 0 0
10:56 pm 22:56 Clear 49 9.4 37 2.8 64 64 ESE 10 17 30 1016 10 16.0934 0 0
11:56 pm 23:56 Clear 48 8.9 37 2.8 66 66 ESE 10 17 29.97 1015 10 16.0934 0 0

Powered by AerisWeather